Location: Bois de la Silve
(44.4667°N, 6.7833°E)
Time: 01:20:49
(UTC+00:00)

Cosmos 2278 - Visible Passes

Search period start: 24 October 2020 00:00
Search period end: 03 November 2020 00:00
Orbit: 841 x 852 km, 71.1° (Epoch: 23 October)

Date Brightness Start Highest point End Pass type
(mag) Time Alt. Az. Time Alt. Az. Time Alt. Az.
24 Oct 5.1 04:19:14 10° NNW 04:24:31 38° NE 04:29:45 10° SE visible
25 Oct 5.1 04:05:34 10° NNW 04:10:49 37° NE 04:16:01 10° ESE visible
25 Oct 5.6 18:59:06 10° S 19:00:15 16° S 19:00:15 16° S visible
26 Oct 5.1 03:51:54 10° NNW 03:57:08 36° NE 04:02:18 10° ESE visible
26 Oct 4.7 18:45:27 10° S 18:48:32 32° SSE 18:48:32 32° SSE visible
27 Oct 5.1 03:38:15 10° N 03:43:26 35° NE 03:48:35 10° ESE visible
27 Oct 4.2 05:22:25 10° NW 05:27:35 38° WSW 05:32:43 10° S visible
27 Oct 3.8 18:31:47 10° S 18:36:45 50° SE 18:36:45 50° SE visible
27 Oct 6.0 20:16:51 10° WSW 20:18:46 19° W 20:18:46 19° W visible
28 Oct 5.2 03:24:35 10° N 03:29:44 35° NE 03:34:52 10° ESE visible
28 Oct 4.2 05:08:42 10° NW 05:13:54 39° WSW 05:19:05 10° S visible
28 Oct 3.8 18:18:09 10° S 18:23:36 50° ESE 18:24:51 42° ENE visible
28 Oct 5.5 20:03:07 10° WSW 20:06:51 27° WNW 20:06:51 27° WNW visible
29 Oct 5.2 03:11:58 15° N 03:16:03 34° NE 03:21:09 10° ESE visible
29 Oct 4.1 04:55:00 10° NW 05:00:14 40° WSW 05:05:27 10° S visible
29 Oct 3.9 18:04:29 10° S 18:09:56 49° ESE 18:12:45 27° NE visible
29 Oct 5.4 19:49:23 10° WSW 19:54:18 29° NW 19:54:45 29° NW visible
30 Oct 5.2 02:59:54 24° N 03:02:21 33° NE 03:07:25 10° ESE visible
30 Oct 4.1 04:41:55 13° NW 04:46:34 41° WSW 04:51:48 10° S visible
30 Oct 3.9 17:50:50 10° S 17:56:15 47° ESE 18:00:27 17° NE visible
30 Oct 5.4 19:35:39 10° WSW 19:40:35 30° NW 19:42:25 25° NNW visible
31 Oct 5.2 02:48:01 32° NE 02:48:39 32° NE 02:53:41 10° ESE visible
31 Oct 4.0 04:30:02 24° NW 04:32:53 42° WSW 04:38:10 10° S visible
31 Oct 4.0 17:37:11 10° S 17:42:35 46° ESE 17:47:56 10° NE visible
31 Oct 5.3 19:21:55 10° WSW 19:26:54 30° NW 19:29:54 19° N visible
01 Nov 5.4 02:36:15 29° ENE 02:36:15 29° ENE 02:39:57 10° ESE visible
01 Nov 4.0 04:18:16 40° W 04:19:13 43° WSW 04:24:31 10° S visible
01 Nov 4.0 17:23:33 10° S 17:28:54 45° ESE 17:34:16 10° NE visible
01 Nov 5.3 19:08:11 10° WSW 19:13:11 31° NW 19:17:11 15° N visible
02 Nov 6.0 02:24:33 18° ESE 02:24:33 18° ESE 02:26:13 10° ESE visible
02 Nov 4.1 04:06:33 40° SW 04:06:33 40° SW 04:10:52 10° S visible
02 Nov 4.1 17:09:54 10° S 17:15:14 44° ESE 17:20:35 10° NE visible
02 Nov 5.3 18:54:28 10° WSW 18:59:30 32° NW 19:04:19 11° N visible
